Location: Bronnegerveen
(52.9548°N, 6.8388°E)
Time: 02:32:27
(UTC+00:00)

NOSS 2-1 (C) - Pass Details

Date: 15 June 2025
Orbit: 378 x 1698 km, 63.3° (Epoch: 07 July)

Event Time Altitude Azimuth Distance (km) Brightness Sun altitude
Rises 00:17:26 0° 305° (NW) 2,422 6.9 -13.1°
Reaches altitude 10° 00:19:30 10° 291° (WNW) 1,652 5.9 -13.1°
Maximum altitude 00:22:35 27° 233° (SW) 1,095 4.4 -13.0°
Enters shadow 00:24:21 20° 196° (SSW) 1,406 4.7 -12.9°
